Platteville, WI

2:12 AM CST on December 17, 2017 (GMT -0600)
Platteville Municipal

Weather History for KPVB - December, 2012

Change the Weather History Date:

Saturday, December 8, 2012

  Actual Average (KDBQ) Record (KDBQ)
Temperature  
Mean Temperature 34 °F -  
Max Temperature 39 °F 31 °F 63 °F (1946)
Min Temperature 28 °F 17 °F -13 °F (1958)
Degree Days  
Heating Degree Days 32    
Moisture  
Dew Point 28 °F    
Average Humidity 81    
Maximum Humidity 93    
Minimum Humidity 61    
Precipitation  
Precipitation 0.00 in - - ()
Sea Level Pressure  
Sea Level Pressure 30.01 in    
Wind  
Wind Speed 7 mph (NE)    
Max Wind Speed 12 mph    
Max Gust Speed -    
Visibility 10 miles    
Events      
Averages and records for this station are not official NWS values.
T = Trace of Precipitation, MM = Missing Value Source: NWS Daily Summary

Daily Weather History Graph

Daily Weather History Graph

Search for Another Location

Airport or City:

Trip Planner

Search our weather history database for the weather conditions in past years. The results will help you decide how hot, cold, wet, or windy it might be!

Date:

Astronomy

Dec. 08, 2012 Rise Set
Actual Time 7:19 AM CST 4:27 PM CST
Civil Twilight 6:47 AM CST 4:59 PM CST
Nautical Twilight 6:12 AM CST 5:35 PM CST
Astronomical Twilight 5:38 AM CST 6:09 PM CST
Moon 1:38 AM CST (12/8) 1:03 PM CST (12/8)
Length of Visible Light 10h 12m
Length of Day
9h 08m
Waning Crescent, 28% of the Moon is Illuminated
Dec 8
Waning Crescent
Dec 13
New
Dec 19
First Quarter
Dec 28
Full
Jan 4
Last Quarter

Hourly Weather History & Observations

Time (CST) Temp. Windchill Dew Point Humidity Pressure Visibility Wind Dir Wind Speed Gust Speed Precip Events Conditions
12:15 AM 32.0 °F 23.6 °F 26.6 °F 80% 29.94 in 10.0 mi North 10.4 mph - N/A   Overcast
12:35 AM 32.0 °F 24.8 °F 26.6 °F 80% 29.94 in 10.0 mi North 8.1 mph - N/A   Overcast
12:55 AM 32.0 °F 24.2 °F 28.4 °F 87% 29.94 in 10.0 mi NNE 9.2 mph - N/A   Overcast
1:15 AM 32.0 °F 24.2 °F 28.4 °F 87% 29.94 in 7.0 mi North 9.2 mph - N/A   Overcast
1:35 AM 32.0 °F 24.2 °F 28.4 °F 87% 29.95 in 10.0 mi North 9.2 mph - N/A   Overcast
1:55 AM 32.0 °F 24.2 °F 28.4 °F 87% 29.95 in 10.0 mi North 9.2 mph - N/A   Overcast
2:15 AM 32.0 °F 26.4 °F 28.4 °F 87% 29.95 in 10.0 mi NNE 5.8 mph - N/A   Overcast
2:35 AM 32.0 °F 27.5 °F 28.4 °F 87% 29.95 in 10.0 mi North 4.6 mph - N/A   Overcast
2:55 AM 32.0 °F 26.4 °F 28.4 °F 87% 29.95 in 10.0 mi North 5.8 mph - N/A   Overcast
3:15 AM 32.0 °F 26.4 °F 28.4 °F 87% 29.95 in 10.0 mi North 5.8 mph - N/A   Overcast
3:35 AM 32.0 °F 26.4 °F 28.4 °F 87% 29.95 in 10.0 mi North 5.8 mph - N/A   Overcast
3:55 AM 32.0 °F 26.4 °F 28.4 °F 87% 29.94 in 10.0 mi North 5.8 mph - N/A   Overcast
4:15 AM 32.0 °F 27.5 °F 28.4 °F 87% 29.95 in 10.0 mi NNW 4.6 mph - N/A   Overcast
4:35 AM 32.0 °F 27.5 °F 28.4 °F 87% 29.96 in 10.0 mi NNW 4.6 mph - N/A   Overcast
4:55 AM 32.0 °F 26.4 °F 26.6 °F 80% 29.96 in 10.0 mi NNW 5.8 mph - N/A   Overcast
5:15 AM 32.0 °F 26.4 °F 26.6 °F 80% 29.96 in 10.0 mi North 5.8 mph - N/A   Overcast
5:35 AM 32.0 °F 27.5 °F 26.6 °F 80% 29.97 in 10.0 mi North 4.6 mph - N/A   Overcast
5:55 AM 32.0 °F 26.4 °F 26.6 °F 80% 29.98 in 10.0 mi NNW 5.8 mph - N/A   Overcast
6:15 AM 30.2 °F 25.4 °F 26.6 °F 86% 29.99 in 10.0 mi NNW 4.6 mph - N/A   Overcast
6:35 AM 30.2 °F 24.3 °F 26.6 °F 86% 29.99 in 10.0 mi NNW 5.8 mph - N/A   Overcast
6:55 AM 28.4 °F 22.2 °F 24.8 °F 86% 29.99 in 10.0 mi NNW 5.8 mph - N/A   Scattered Clouds
7:15 AM 28.4 °F 21.2 °F 24.8 °F 86% 30.00 in 10.0 mi North 6.9 mph - N/A   Clear
7:35 AM 28.4 °F 20.4 °F 23.0 °F 80% 30.00 in 10.0 mi North 8.1 mph - N/A   Clear
7:55 AM 28.4 °F 22.2 °F 24.8 °F 86% 30.01 in 10.0 mi North 5.8 mph - N/A   Clear
8:15 AM 28.4 °F 20.4 °F 24.8 °F 86% 30.01 in 10.0 mi North 8.1 mph - N/A   Clear
8:55 AM 30.2 °F 21.9 °F 26.6 °F 86% 30.02 in 10.0 mi North 9.2 mph - N/A   Clear
9:15 AM 32.0 °F 23.6 °F 26.6 °F 80% 30.03 in 10.0 mi NNE 10.4 mph - N/A   Clear
9:35 AM 32.0 °F 23.6 °F 28.4 °F 87% 30.03 in 10.0 mi NNE 10.4 mph - N/A   Scattered Clouds
10:15 AM 32.0 °F 24.2 °F 28.4 °F 87% 30.05 in 10.0 mi NE 9.2 mph - N/A   Overcast
10:35 AM 32.0 °F 24.2 °F 28.4 °F 87% 30.04 in 10.0 mi ENE 9.2 mph - N/A   Scattered Clouds
10:55 AM 33.8 °F 28.6 °F 28.4 °F 81% 30.04 in 10.0 mi NNE 5.8 mph - N/A   Mostly Cloudy
11:15 AM 33.8 °F 28.6 °F 28.4 °F 81% 30.04 in 10.0 mi NE 5.8 mph - N/A   Mostly Cloudy
11:35 AM 35.6 °F 32.8 °F 28.4 °F 75% 30.03 in 10.0 mi ENE 3.5 mph - N/A   Scattered Clouds
11:55 AM 35.6 °F 29.9 °F 28.4 °F 75% 30.02 in 10.0 mi NE 6.9 mph - N/A   Clear
12:15 PM 37.4 °F 32.1 °F 28.4 °F 70% 30.01 in 10.0 mi NE 6.9 mph - N/A   Clear
12:35 PM 37.4 °F 32.8 °F 28.4 °F 70% 30.01 in 10.0 mi NNE 5.8 mph - N/A   Clear
12:55 PM 37.4 °F 32.8 °F 26.6 °F 65% 30.01 in 10.0 mi NE 5.8 mph - N/A   Clear
1:15 PM 37.4 °F 34.9 °F 28.4 °F 70% 30.01 in 10.0 mi East 3.5 mph - N/A   Scattered Clouds
1:35 PM 37.4 °F 34.9 °F 26.6 °F 65% 30.02 in 10.0 mi East 3.5 mph - N/A   Overcast
1:55 PM 37.4 °F 32.8 °F 26.6 °F 65% 30.02 in 10.0 mi East 5.8 mph - N/A   Overcast
2:15 PM 39.2 °F 35.9 °F 26.6 °F 61% 30.01 in 10.0 mi East 4.6 mph - N/A   Overcast
2:35 PM 37.4 °F 34.9 °F 26.6 °F 65% 30.02 in 10.0 mi East 3.5 mph - N/A   Overcast
3:15 PM 37.4 °F 31.4 °F 26.6 °F 65% 30.03 in 10.0 mi ENE 8.1 mph - N/A   Clear
3:35 PM 37.4 °F 32.1 °F 26.6 °F 65% 30.03 in 10.0 mi East 6.9 mph - N/A   Clear
3:55 PM 35.6 °F 31.7 °F 28.4 °F 75% 30.04 in 10.0 mi ESE 4.6 mph - N/A   Clear
4:15 PM 35.6 °F 31.7 °F 28.4 °F 75% 30.04 in 10.0 mi ESE 4.6 mph - N/A   Scattered Clouds
4:35 PM 35.6 °F 31.7 °F 28.4 °F 75% 30.05 in 10.0 mi ESE 4.6 mph - N/A   Scattered Clouds
4:55 PM 33.8 °F 28.6 °F 28.4 °F 81% 30.04 in 10.0 mi East 5.8 mph - N/A   Clear
5:15 PM 33.8 °F 28.6 °F 28.4 °F 81% 30.04 in 10.0 mi East 5.8 mph - N/A   Clear
5:35 PM 33.8 °F 28.6 °F 28.4 °F 81% 30.04 in 10.0 mi East 5.8 mph - N/A   Clear
5:55 PM 33.8 °F 27.7 °F 28.4 °F 81% 30.04 in 10.0 mi East 6.9 mph - N/A   Clear
6:15 PM 33.8 °F 27.7 °F 26.6 °F 75% 30.04 in 10.0 mi East 6.9 mph - N/A   Clear
6:55 PM 33.8 °F 27.0 °F 28.4 °F 81% 30.05 in 10.0 mi East 8.1 mph - N/A   Clear
7:35 PM 32.0 °F 26.4 °F 28.4 °F 87% 30.07 in 10.0 mi East 5.8 mph - N/A   Scattered Clouds
7:55 PM 32.0 °F 26.4 °F 28.4 °F 87% 30.07 in 10.0 mi East 5.8 mph - N/A   Mostly Cloudy
8:15 PM 32.0 °F 25.6 °F 28.4 °F 87% 30.06 in 10.0 mi East 6.9 mph - N/A   Overcast
8:35 PM 32.0 °F 24.2 °F 28.4 °F 87% 30.05 in 10.0 mi East 9.2 mph - N/A   Overcast
8:55 PM 32.0 °F 23.0 °F 28.4 °F 87% 30.05 in 10.0 mi East 11.5 mph - N/A   Scattered Clouds
9:15 PM 32.0 °F 24.2 °F 28.4 °F 87% 30.05 in 10.0 mi East 9.2 mph - N/A   Scattered Clouds
9:55 PM 32.0 °F 24.2 °F 28.4 °F 87% 30.05 in 10.0 mi East 9.2 mph - N/A   Overcast
10:35 PM 32.0 °F 23.6 °F 28.4 °F 87% 30.04 in 10.0 mi East 10.4 mph - N/A   Mostly Cloudy
10:55 PM 32.0 °F 24.8 °F 28.4 °F 87% 30.05 in 10.0 mi East 8.1 mph - N/A   Scattered Clouds
11:15 PM 32.0 °F 25.6 °F 28.4 °F 87% 30.05 in 10.0 mi East 6.9 mph - N/A   Scattered Clouds
11:55 PM 32.0 °F 24.8 °F 30.2 °F 93% 30.04 in 10.0 mi East 8.1 mph - N/A   Overcast